[[{"header":{"parameterUnit":"m.s-1","parameterCategory":1,"la1":30.2991,"la2":30.254,"lo1":-89.0895,"lo2":-89.0444,"dy":0.0017,"dx":0.0017,"nx":28,"ny":28,"refTime":"2025-02-23T03:00:00:Z","depth":0,"parameterNumber":2,"parameterNumberName":"U-component_of_WINDS"},"data":[0,0,0,0,0,0,0,0,0,0,0,0,0,0,0,0,0,0,0,0,0,0,0,0,0,0,0,0,0,0,0,0,0,0,0,0,0,0,0,0,0,0,0,0,0,0,0,0,0,0,0,0,0,0,0,0,0,0,-2.8494,-2.8495,0,-2.859,-2.8591,-2.8593,-2.8541,-2.8538,-2.8536,-2.8533,-2.8634,-2.8639,-2.8644,0,0,0,0,0,0,0,0,0,0,0,0,0,-2.8268,-2.8272,-2.8494,-2.8495,-2.8497,-2.859,-2.8591,-2.8593,-2.8541,-2.8538,-2.8535,-2.8532,-2.8632,-2.8638,-2.8644,0,0,0,0,0,0,0,0,0,0,0,0,0,-2.8365,-2.8274,-2.8494,-2.8482,-2.8482,-2.859,-2.8592,-2.8593,-2.8542,-2.8538,-2.8534,-2.853,-2.863,-2.8637,-2.8645,-2.8771,0,0,-2.8668,-2.8672,0,0,0,0,0,0,0,0,-2.836,-2.8374,-2.8483,-2.8483,-2.8483,-2.855,-2.8548,-2.8653,-2.8543,-2.8519,-2.8533,-2.8529,-2.8609,-2.8618,-2.8645,-2.8775,-2.878,-2.8669,-2.8674,-2.8677,-2.8679,0,0,0,0,0,0,0,-2.8353,-2.8369,-2.8532,-2.8484,-2.8485,-2.8472,-2.8482,-2.8568,-2.8585,-2.8521,-2.8518,-2.8529,-2.8608,-2.8638,-2.8647,-2.8781,-2.8669,-2.8676,-2.868,-2.8683,-2.902,-2.9024,0,0,0,0,0,0,-2.8347,-2.8364,-2.8529,-2.8535,-2.8411,-2.848,-2.849,-2.8532,-2.8584,-2.8588,-2.8533,-2.8527,-2.8626,-2.8638,-2.865,-2.8801,-2.8677,-2.8684,-2.8689,-2.9016,-2.9021,-2.9026,0,0,0,0,0,0,-2.8342,-2.8362,-2.8525,-2.8449,-2.8468,-2.8488,-2.8535,-2.8536,-2.8565,-2.8593,-2.8596,-2.8559,-2.8624,-2.8639,-2.8741,-2.8804,-2.8688,-2.8695,-2.9011,-2.9017,-2.9023,-2.9105,0,0,0,0,0,0,-2.8336,-2.8361,-2.8408,-2.845,-2.8473,-2.8615,-2.8539,-2.8541,-2.8578,-2.8572,-2.8619,-2.8623,-2.8622,-2.873,-2.8749,-2.8813,-2.8701,-2.9005,-2.9014,-2.9021,-2.9097,-2.9113,-2.9127,0,0,0,0,0,-2.8328,-2.8428,-2.8411,-2.8431,-2.8533,-2.8618,-2.8631,-2.8628,-2.8584,-2.8632,-2.865,-2.8621,-2.8794,-2.8741,-2.8761,-2.8829,-2.9001,-2.9011,-2.9021,-2.909,-2.911,-2.9127,0,0,0,0,0,0,-2.8394,-2.8433,-2.8415,-2.8531,-2.8572,-2.8609,-2.8671,-2.865,-2.8704,-2.8696,-2.8689,-2.87,-2.8806,-2.8827,-2.8768,-2.8953,-2.8891,-2.8905,-2.8936,-2.8956,-2.8971,-2.8964,-2.8707,0,0,0,0,0,-2.8422,-2.8488,-2.8518,-2.8618,-2.8639,-2.8652,-2.8689,-2.8682,-2.8724,-2.8741,-2.8766,-2.8809,-2.8872,-2.8915,-2.8975,-2.9098,-2.9108,-2.9155,-2.917,-2.9183,-2.9196,-2.9264,-2.9285,-2.9058,-2.9058,-2.9057,0,0,-2.8481,-2.8511,-2.8553,-2.8632,-2.8663,-2.8732,-2.8666,-2.8742,-2.8793,-2.8753,-2.8851,-2.887,-2.8917,-2.9031,-2.9082,-2.9051,-2.9261,-2.9195,-2.9205,-2.9212,-2.9276,-2.9297,-2.9316,-2.9064,-2.9063,-2.9062,0,0,-2.8624,-2.8653,-2.8739,-2.8771,-2.8817,-2.8825,-2.8845,-2.8886,-2.8897,-2.8995,-2.8966,-2.9027,-2.9137,-2.9172,-2.9204,-2.9358,-2.9335,-2.9378,-2.946,-2.9526,-2.9544,-2.9559,-2.9616,-2.9636,-2.939,-2.9391,-2.9391,0,-2.8692,-2.8794,-2.8786,-2.8864,-2.8901,-2.8866,-2.8954,-2.8985,-2.905,-2.9076,-2.904,-2.9177,-2.9206,-2.9327,-2.9365,-2.9391,-2.9416,-2.9374,-2.9541,-2.9557,-2.9572,-2.9626,-2.9647,-2.9396,-2.9395,-2.9395,-2.9394,0,-2.8876,-2.8947,-2.9011,-2.9074,-2.9117,-2.9199,-2.9204,-2.9249,-2.9238,-2.9249,-2.9349,-2.9382,-2.9449,-2.9477,-2.9467,-2.9597,-2.9577,-2.9541,-2.9479,-2.9599,-2.965,-2.967,-2.9403,-2.9401,-2.94,-2.9398,0,0,-2.9066,-2.9122,-2.9146,-2.9174,-2.9222,-2.9277,-2.9358,-2.9422,-2.9461,-2.9506,-2.9574,-2.9667,-2.9634,-2.9671,-2.9665,-2.9722,-2.9844,-2.968,-2.9681,-2.9711,-2.999,-3.0018,-3.0042,-2.9827,-2.9831,-2.9834,-2.9987,0,-2.9213,-2.9355,-2.9349,-2.9481,-2.9547,-2.9514,-2.9585,-2.9622,-2.9634,-2.9692,-2.9705,-2.9772,-2.9723,-2.9745,-2.98,-2.9818,-2.99,-2.9806,-2.9892,-2.9896,-2.9884,-3.0068,-3.0098,-3.024,-3.0006,-3.001,-3.0012,0,-2.9405,-2.9456,-2.9594,-2.9633,-2.966,-2.9724,-2.9782,-2.9837,-2.9879,-2.9884,-2.9924,-2.9908,-2.999,-2.9924,-3.0038,-2.9974,-3.0008,-3.0022,-3.0027,-3.0037,-2.9963,-3.0085,-3.0285,-3.0308,-3.0043,-3.004,-3.0038,0,-2.9532,-2.9635,-2.9731,-2.9755,-2.9802,-2.9848,-2.9869,-2.9907,-2.9946,-2.9996,-3.0022,-3.0081,-3.0115,-3.0162,-3.0163,-3.0114,-3.0278,-3.0212,-3.0286,-3.0286,-3.0324,-3.0322,-3.0535,-3.0343,-3.0343,-3.0342,-3.0342,0,-2.9699,-2.9785,-2.9788,-2.9848,-2.9944,-2.9936,-3.0032,-3.0049,-3.0082,-3.0145,-3.0119,-3.0179,-3.0176,-3.0236,-3.0237,-3.0332,-3.0347,-3.0353,-3.0353,-3.0357,-3.0357,-3.0381,-3.0372,-3.0348,-3.0347,-3.0345,-3.0344,0,-2.9858,-2.9863,-2.9966,-3.0001,-3.0012,-3.0081,-3.0112,-3.0168,-3.0177,-3.0256,-3.0275,-3.0289,-3.0359,-3.0364,-3.0444,-3.0445,-3.056,-3.0548,-3.0547,-3.0545,-3.062,-3.0613,-3.0858,-3.089,-3.0675,-3.0677,-3.0679,0,-2.9965,-3.003,-3.0072,-3.0112,-3.0136,-3.02,-3.0239,-3.0234,-3.0276,-3.0328,-3.0379,-3.0445,-3.0499,-3.0611,-3.063,-3.0691,-3.0681,-3.0763,-3.0691,-3.0693,-3.0685,-3.0682,-3.0689,-3.0778,-3.078,-3.0782,-3.0784,0,-3.0155,-3.0154,-3.0211,-3.027,-3.0317,-3.0363,-3.0405,-3.0439,-3.0439,-3.0487,-3.0558,-3.0599,-3.068,-3.0748,-3.0807,-3.083,-3.0808,-3.0805,-3.0826,-3.0832,-3.0829,-3.0834,-3.0587,-3.0801,-3.0799,-3.0798,-3.0797,-3.0796,-3.0293,-3.035,-3.0388,-3.0452,-3.0483,-3.0524,-3.0579,-3.0594,-3.0652,-3.0718,-3.0711,-3.0789,-3.0829,-3.0906,-3.0934,-3.0995,-3.0968,-3.0997,-3.1005,-3.1013,-3.1022,-3.0817,-3.1006,-3.1005,-3.1005,-3.1004,-3.1004,0,-3.0483,-3.0506,-3.0565,-3.0625,-3.0676,-3.0648,-3.0693,-3.0738,-3.0807,-3.0845,-3.0898,-3.0979,-3.1043,-3.1066,-3.1129,-3.1174,-3.1165,-3.119,-3.1188,-3.1194,-3.1042,-3.1019,-3.1196,-3.1196,-3.1196,-3.1196,-3.1196,-3.1196,-3.0588,-3.0683,-3.0687,-3.0797,-3.0819,-3.0895,-3.0924,-3.0961,-3.0991,-3.1082,-3.1136,-3.1149,-3.1181,-3.1246,-3.1304,-3.1309,-3.1334,-3.1365,-3.1366,-3.1224,-3.1205,-3.1186,-3.1164,-3.137,-3.137,-3.1513,-3.1514,-3.1515]},{"header":{"parameterUnit":"m.s-1","parameterCategory":1,"la1":30.2991,"la2":30.254,"lo1":-89.0895,"lo2":-89.0444,"dy":0.0017,"dx":0.0017,"nx":28,"ny":28,"refTime":"2025-02-23T03:00:00:Z","depth":0,"parameterNumber":3,"parameterNumberName":"V-component_of_WINDS"},"data":[0,0,0,0,0,0,0,0,0,0,0,0,0,0,0,0,0,0,0,0,0,0,0,0,0,0,0,0,0,0,0,0,0,0,0,0,0,0,0,0,0,0,0,0,0,0,0,0,0,0,0,0,0,0,0,0,0,0,-5.4167,-5.4167,0,-5.4166,-5.4166,-5.4166,-5.4078,-5.4076,-5.4073,-5.4071,-5.407,-5.4072,-5.4074,0,0,0,0,0,0,0,0,0,0,0,0,0,-5.4091,-5.4093,-5.4167,-5.4167,-5.4167,-5.4166,-5.4166,-5.4166,-5.4079,-5.4076,-5.4073,-5.407,-5.4069,-5.4072,-5.4074,0,0,0,0,0,0,0,0,0,0,0,0,0,-5.4111,-5.4094,-5.4167,-5.4123,-5.4119,-5.4166,-5.4166,-5.4166,-5.4079,-5.4076,-5.4072,-5.4069,-5.4069,-5.4072,-5.4075,-5.4164,0,0,-5.4085,-5.4086,0,0,0,0,0,0,0,0,-5.411,-5.4114,-5.413,-5.4126,-5.4122,-5.4119,-5.4139,-5.4166,-5.408,-5.4094,-5.4071,-5.4067,-5.4089,-5.409,-5.4098,-5.4164,-5.4164,-5.4085,-5.4087,-5.4088,-5.4089,0,0,0,0,0,0,0,-5.4109,-5.4113,-5.4167,-5.413,-5.4125,-5.4103,-5.4102,-5.4144,-5.4111,-5.4093,-5.4086,-5.4088,-5.4086,-5.4095,-5.4097,-5.4164,-5.4085,-5.4088,-5.409,-5.4091,-5.4301,-5.4305,0,0,0,0,0,0,-5.4113,-5.4113,-5.4167,-5.4167,-5.4107,-5.4107,-5.4106,-5.4123,-5.411,-5.4105,-5.4091,-5.4083,-5.4091,-5.4094,-5.4097,-5.4199,-5.4088,-5.4091,-5.4093,-5.4298,-5.4302,-5.4306,0,0,0,0,0,0,-5.4112,-5.4119,-5.4167,-5.4138,-5.4142,-5.4112,-5.4132,-5.4125,-5.4134,-5.4109,-5.4102,-5.4105,-5.4089,-5.4092,-5.4147,-5.4198,-5.4092,-5.4095,-5.4293,-5.4299,-5.4304,-5.4406,0,0,0,0,0,0,-5.411,-5.4119,-5.4153,-5.4139,-5.4144,-5.4218,-5.4136,-5.4128,-5.4139,-5.413,-5.4121,-5.4116,-5.4086,-5.4143,-5.4151,-5.42,-5.4098,-5.4289,-5.4296,-5.4302,-5.4398,-5.4414,-5.4428,0,0,0,0,0,-5.4108,-5.4182,-5.4155,-5.4162,-5.4186,-5.4222,-5.4224,-5.4188,-5.4144,-5.4177,-5.4161,-5.4116,-5.4191,-5.415,-5.4157,-5.4209,-5.4285,-5.4294,-5.4302,-5.4391,-5.4411,-5.4428,0,0,0,0,0,0,-5.4202,-5.4179,-5.415,-5.4221,-5.4224,-5.4207,-5.4248,-5.4211,-5.4226,-5.4217,-5.4171,-5.417,-5.4232,-5.4226,-5.418,-5.4294,-5.423,-5.4241,-5.4295,-5.4314,-5.4329,-5.4329,-5.4101,0,0,0,0,0,-5.4232,-5.4263,-5.4241,-5.4306,-5.4309,-5.4279,-5.4292,-5.4264,-5.4265,-5.4266,-5.4254,-5.4256,-5.428,-5.4297,-5.4317,-5.4396,-5.4393,-5.4435,-5.4451,-5.4463,-5.4472,-5.4513,-5.4531,-5.4333,-5.4333,-5.4333,0,0,-5.4292,-5.4283,-5.4306,-5.4325,-5.4324,-5.4356,-5.428,-5.4318,-5.4341,-5.4272,-5.4323,-5.4314,-5.4314,-5.4381,-5.441,-5.4378,-5.4526,-5.4474,-5.4484,-5.4486,-5.4523,-5.4542,-5.4559,-5.4339,-5.4338,-5.4337,0,0,-5.4419,-5.4416,-5.447,-5.447,-5.4469,-5.4448,-5.4461,-5.4449,-5.444,-5.4491,-5.4439,-5.4466,-5.4509,-5.451,-5.4517,-5.4643,-5.4603,-5.4651,-5.473,-5.477,-5.4786,-5.4799,-5.4844,-5.4861,-5.4661,-5.4661,-5.4661,0,-5.4495,-5.4542,-5.4502,-5.4543,-5.4553,-5.4491,-5.4544,-5.4546,-5.4553,-5.456,-5.4524,-5.4575,-5.4571,-5.4637,-5.4668,-5.4675,-5.4688,-5.4652,-5.4787,-5.48,-5.4812,-5.4854,-5.4871,-5.4667,-5.4666,-5.4666,-5.4665,0,-5.4634,-5.4668,-5.4711,-5.4718,-5.4732,-5.478,-5.4747,-5.4766,-5.4737,-5.4719,-5.4771,-5.4764,-5.4781,-5.4795,-5.4767,-5.4857,-5.4837,-5.4795,-5.473,-5.4838,-5.4876,-5.4892,-5.4675,-5.4673,-5.4671,-5.467,0,0,-5.4821,-5.4805,-5.4821,-5.4823,-5.4817,-5.4842,-5.4886,-5.4903,-5.492,-5.4926,-5.4962,-5.4999,-5.4959,-5.4967,-5.4938,-5.4973,-5.5073,-5.4926,-5.4925,-5.4953,-5.5172,-5.5203,-5.5223,-5.5046,-5.5049,-5.5051,-5.5171,0,-5.4943,-5.5018,-5.4983,-5.5061,-5.5091,-5.5032,-5.507,-5.5071,-5.5056,-5.5079,-5.5062,-5.5088,-5.5035,-5.5038,-5.5071,-5.5054,-5.5116,-5.5045,-5.5078,-5.508,-5.508,-5.5243,-5.5277,-5.539,-5.5186,-5.5189,-5.5191,0,-5.5096,-5.5108,-5.519,-5.5177,-5.5188,-5.5223,-5.5235,-5.5258,-5.5257,-5.5244,-5.5252,-5.5215,-5.5256,-5.5193,-5.525,-5.5202,-5.5213,-5.5207,-5.5211,-5.5212,-5.5142,-5.5248,-5.5426,-5.5443,-5.5214,-5.5212,-5.5211,0,-5.5223,-5.526,-5.5313,-5.5316,-5.5303,-5.5329,-5.5325,-5.532,-5.5333,-5.5343,-5.5351,-5.5367,-5.5375,-5.5388,-5.5356,-5.5313,-5.5417,-5.5351,-5.5407,-5.5408,-5.5431,-5.543,-5.5613,-5.544,-5.5439,-5.5439,-5.5439,0,-5.5364,-5.5415,-5.537,-5.5403,-5.5458,-5.5417,-5.5474,-5.5463,-5.546,-5.5489,-5.5439,-5.5468,-5.5424,-5.5448,-5.5423,-5.5474,-5.5478,-5.5468,-5.5461,-5.5472,-5.5474,-5.5479,-5.547,-5.5444,-5.5443,-5.5442,-5.5441,0,-5.5515,-5.5487,-5.5541,-5.5524,-5.552,-5.5563,-5.5548,-5.5577,-5.5558,-5.5596,-5.5602,-5.5573,-5.5599,-5.5568,-5.5591,-5.5575,-5.5643,-5.5624,-5.5643,-5.5638,-5.5695,-5.569,-5.5887,-5.5911,-5.5724,-5.5725,-5.5727,0,-5.5606,-5.5645,-5.5632,-5.5647,-5.5646,-5.5672,-5.5684,-5.5645,-5.566,-5.5661,-5.569,-5.5711,-5.5726,-5.577,-5.5751,-5.5768,-5.5749,-5.5817,-5.5751,-5.5762,-5.5749,-5.5747,-5.5751,-5.583,-5.5833,-5.5834,-5.5836,0,-5.5771,-5.5755,-5.5774,-5.5788,-5.5804,-5.5813,-5.5819,-5.5835,-5.5794,-5.5812,-5.5838,-5.585,-5.5873,-5.5895,-5.5907,-5.5902,-5.5862,-5.5857,-5.587,-5.5882,-5.5892,-5.5887,-5.5679,-5.5852,-5.5851,-5.585,-5.5849,-5.5848,-5.5895,-5.5926,-5.5921,-5.5944,-5.5944,-5.595,-5.5976,-5.596,-5.5981,-5.5996,-5.5972,-5.6004,-5.6001,-5.6013,-5.6012,-5.6037,-5.6007,-5.6028,-5.6032,-5.6038,-5.6046,-5.5888,-5.6039,-5.6038,-5.6038,-5.6037,-5.6037,0,-5.6056,-5.605,-5.6071,-5.608,-5.6098,-5.6059,-5.6063,-5.608,-5.6109,-5.6109,-5.6125,-5.6154,-5.6174,-5.6157,-5.6174,-5.6196,-5.6179,-5.6202,-5.62,-5.6199,-5.6072,-5.6058,-5.6216,-5.6216,-5.6216,-5.6216,-5.6216,-5.6216,-5.6142,-5.6192,-5.6175,-5.6225,-5.6218,-5.6248,-5.6254,-5.6259,-5.6259,-5.6293,-5.631,-5.6298,-5.6291,-5.6307,-5.6324,-5.6318,-5.6327,-5.6357,-5.6345,-5.6226,-5.6208,-5.6192,-5.6178,-5.6359,-5.6359,-5.647,-5.6471,-5.6472]}]]